Weather History for KCNY - March, 2013

Change the Weather History Date:

Monday, March 4, 2013

  Actual Average Record
Temperature  
Mean Temperature 44 °F 41 °F  
Max Temperature 56 °F 54 °F 72 °F (1986)
Min Temperature 31 °F 28 °F 12 °F (2002)
Degree Days  
Heating Degree Days 21 24  
Month to date heating degree days 87 98  
Since 1 July heating degree days 5017 4507  
Cooling Degree Days 0 0  
Month to date cooling degree days 0 0  
Year to date cooling degree days 0 0  
Moisture  
Dew Point 23 °F    
Average Humidity 50    
Maximum Humidity 86    
Minimum Humidity 14    
Precipitation  
Precipitation 0.01 in 0.03 in 0.59 in (1948)
Month to date precipitation 0.05 0.10  
Year to date precipitation 0.68 1.26  
Sea Level Pressure  
Sea Level Pressure 29.91 in    
Wind  
Wind Speed 9 mph (WNW)    
Max Wind Speed 28 mph    
Max Gust Speed 36 mph    
Visibility 10 miles    
Events Rain    
T = Trace of Precipitation, MM = Missing Value Source: NWS Daily Summary

Daily Weather History Graph

Daily Weather History Graph

Search for Another Location

Airport or City:

Trip Planner

Search our weather history database for the weather conditions in past years. The results will help you decide how hot, cold, wet, or windy it might be!

Date:

Astronomy

Mar. 04, 2013 Rise Set
Actual Time 6:46 AM MST 6:15 PM MST
Civil Twilight 6:19 AM MST 6:42 PM MST
Nautical Twilight 5:49 AM MST 7:12 PM MST
Astronomical Twilight 5:18 AM MST 7:43 PM MST
Moon 12:57 AM MST (3/4) 11:02 AM MST (3/4)
Length of Visible Light 12h 22m
Length of Day
11h 28m
Waning Gibbous, 51% of the Moon is Illuminated
Mar 4
Waning Gibbous
Mar 4
Last Quarter
Mar 11
New
Mar 19
First Quarter
Mar 27
Full

Hourly Weather History & Observations

Time (MST) Temp. Windchill Dew Point Humidity Pressure Visibility Wind Dir Wind Speed Gust Speed Precip Events Conditions
12:53 AM 44.1 °F 40.1 °F 39.9 °F 85% 29.75 in 10.0 mi SSW 6.9 mph - 0.01 in Rain Light Rain
1:53 AM 44.1 °F 39.0 °F 39.0 °F 82% 29.75 in 10.0 mi SSW 9.2 mph - 0.00 in   Mostly Cloudy
2:53 AM 45.0 °F 39.3 °F 37.0 °F 74% 29.74 in 10.0 mi SW 11.5 mph - N/A   Clear
3:53 AM 44.1 °F 42.5 °F 37.0 °F 76% 29.75 in 10.0 mi WNW 3.5 mph - N/A   Scattered Clouds
4:53 AM 43.0 °F 39.5 °F 36.0 °F 76% 29.79 in 10.0 mi NNE 5.8 mph - N/A   Overcast
5:53 AM 39.9 °F 37.8 °F 36.0 °F 86% 29.80 in 10.0 mi South 3.5 mph - N/A   Overcast
6:53 AM 39.9 °F - 36.0 °F 86% 29.81 in 10.0 mi Calm Calm - N/A   Clear
7:53 AM 41.0 °F - 37.0 °F 86% 29.83 in 10.0 mi Calm Calm - N/A   Clear
8:53 AM 45.0 °F - 39.0 °F 80% 29.83 in 10.0 mi Calm Calm - N/A   Clear
9:53 AM 48.9 °F - 34.0 °F 56% 29.84 in 10.0 mi NW 8.1 mph - N/A   Clear
10:53 AM 51.1 °F - 32.0 °F 48% 29.85 in 10.0 mi WNW 11.5 mph - N/A   Clear
11:53 AM 52.0 °F - 28.0 °F 40% 29.86 in 10.0 mi West 9.2 mph 16.1 mph N/A   Clear
12:53 PM 54.0 °F - 23.0 °F 30% 29.86 in 10.0 mi West 15.0 mph - N/A   Partly Cloudy
1:53 PM 55.0 °F - 17.1 °F 23% 29.86 in 10.0 mi NW 23.0 mph 29.9 mph N/A   Clear
2:53 PM 53.1 °F - 12.0 °F 20% 29.90 in 10.0 mi NNW 19.6 mph 33.4 mph N/A   Clear
3:53 PM 52.0 °F - 9.0 °F 18% 29.96 in 10.0 mi NW 26.5 mph 32.2 mph N/A   Clear
4:53 PM 48.9 °F - 1.0 °F 14% 30.01 in 10.0 mi NW 20.7 mph 32.2 mph N/A   Clear
5:53 PM 45.0 °F 38.2 °F 1.9 °F 17% 30.06 in 10.0 mi NW 15.0 mph - N/A   Clear
6:53 PM 42.1 °F 36.1 °F 9.0 °F 26% 30.12 in 10.0 mi East 10.4 mph - N/A   Clear
7:53 PM 39.9 °F - 7.0 °F 26% 30.15 in 10.0 mi Calm Calm - N/A   Clear
8:53 PM 37.0 °F 32.4 °F 8.1 °F 30% 30.16 in 10.0 mi East 5.8 mph - N/A   Clear
9:53 PM 35.1 °F - 8.1 °F 33% 30.18 in 10.0 mi Calm Calm - N/A   Clear
10:53 PM 34.0 °F 31.0 °F 8.1 °F 34% 30.18 in 10.0 mi South 3.5 mph - N/A   Clear